Regional Weather Roundup
Issued by NWS

Home | Current Version | Previous Version | Text Only | Print | Product List | Glossary Off
Versions: 1 2 3 4 5 6 7 8 9 10 11 12 13 14 15 16 17 18 19 20 21 22 23 24 25 26 27

000
ASUS45 KCYS 301810
RWRWY

WYOMING REGIONAL WEATHER ROUNDUP
NATIONAL WEATHER SERVICE CHEYENNE WY
1200 PM MDT SAT APR 30 2016

NOTE:  "FAIR" INDICATES FEW OR NO CLOUDS BELOW 12,000 FEET
WITH NO SIGNIFICANT WEATHER AND/OR OBSTRUCTIONS TO VISIBILITY.

WYZ001-301900-
YELLOWSTONE NATIONAL PARK

CITY           SKY/WX    TMP DP  RH WIND       PRES   REMARKS
LK YELLOWSTONE   N/A     40  24  53 VRB5      30.09S
6HR MIN TEMP:  27; 6HR MAX TEMP:  40;

W YELLOWSTONE  NOT AVBL

$$
WYZ002>013-054>058-071-098>099-301900-
NORTHERN WYOMING

CITY           SKY/WX    TMP DP  RH WIND       PRES   REMARKS
JACKSON        PTSUNNY   46  28  49 N12G18    30.02
CODY           CLOUDY    45  36  70 N20G25    30.12S
GREYBULL       PTSUNNY   54  30  40 VRB3      30.05F
6HR MIN TEMP:  43; 6HR MAX TEMP:  56;

WORLAND        CLOUDY    49  36  61 N6        30.08S
6HR MIN TEMP:  40; 6HR MAX TEMP:  49;

SHERIDAN       CLOUDY    42  35  76 CALM      30.18S
6HR MIN TEMP:  39; 6HR MAX TEMP:  43; 6HR PCP: TRACE;

BUFFALO          N/A    N/A N/A N/A MISG      30.17R
GILLETTE       PTSUNNY   46  36  68 NE17      30.13R
6HR MIN TEMP:  37; 6HR MAX TEMP:  46; 6HR PCP:  0.02;

HULETT         CLOUDY    45  34  65 NE16      30.14S
NEWCASTLE      MOCLDY    41  30  65 NE8       30.10S

$$
WYZ014>020-022>026-101>103-301900-
CENTRAL WYOMING

CITY           SKY/WX    TMP DP  RH WIND       PRES   REMARKS
BIG PINEY      CLOUDY    44  29  55 VRB5      30.03S
6HR MIN TEMP:  31; 6HR MAX TEMP:  44; 6HR PCP: TRACE;

PINEDALE       CLOUDY    43  30  61 NE5       30.03S
DUBOIS         CLOUDY    37  30  75 SE13G18   30.05S WCI  29
LANDER         LGT RAIN  39  36  89 N5        30.08R
6HR MIN TEMP:  33; 6HR MAX TEMP:  39; 6HR PCP:  0.18;

RIVERTON       LGT RAIN  37  35  92 SE10      30.10R WCI  30
6HR MIN TEMP:  35; 6HR MAX TEMP:  41; 6HR PCP:  0.06;

CASPER         CLOUDY    37  33  85 NE21      30.07R WCI  26
6HR MIN TEMP:  32; 6HR MAX TEMP:  37; 6HR PCP:  0.10;

DOUGLAS        LGT SNOW  36  33  89 N5        30.10R FOG     WCI  32
6HR MIN TEMP:  32; 6HR MAX TEMP:  35; 6HR PCP:  0.28;


$$
WYZ021-027>030-104>119-301900-
SOUTHERN WYOMING

CITY           SKY/WX    TMP DP  RH WIND       PRES   REMARKS
EVANSTON       PTSUNNY   40  26  57 E20       30.02S WCI  30
6HR MIN TEMP:  31; 6HR MAX TEMP:  41;

KEMMERER         N/A     37  32  81 E7        30.05R WCI  32
FORT BRIDGER   LGT SNOW  36  36 100 SE9       30.07R VSB 3/4 WCI  29
ROCK SPRINGS   LGT SNOW  36  32  85 NE18G25   30.04R FOG     WCI  26
6HR MIN TEMP:  31; 6HR MAX TEMP:  37; 6HR PCP: TRACE;

DIXON          MOCLDY    43  26  51 N22G28    29.98R
RAWLINS        CLOUDY    33  28  81 NE10      30.03R HAZE    WCI  25
6HR MIN TEMP:  29; 6HR MAX TEMP:  33;

SARATOGA       CLOUDY    32  32 100 N9        30.02R FOG     WCI  24
LARAMIE        LGT SNOW  28  25  88 N10       30.00R FOG     WCI  19
6HR MIN TEMP:  24; 6HR MAX TEMP:  28; 6HR PCP:  0.02;

CHEYENNE       LGT SNOW  31  28  89 N20G31    29.98R VSB 1   WCI  19
6HR MIN TEMP:  28; 6HR MAX TEMP:  32; 6HR PCP:  0.05;

TORRINGTON     LGT RAIN  36  33  89 N12G20    30.02R WCI  28
6HR MIN TEMP:  33; 6HR MAX TEMP:  36; 6HR PCP:  0.21;

PINE BLUFFS    LGT SNOW  32  32 100 N22G28    29.97R WCI  19

$$




USA.gov is the U.S. government's official web portal to all federal, state and local government web resources and services.